Brunswick, GA

9:55 PM EDT on May 22, 2017 (GMT -0400)
Glynco Jetport

Weather History for KBQK - September, 2012

Change the Weather History Date:

Saturday, September 8, 2012

  Actual Average Record
Temperature  
Mean Temperature 84 °F -  
Max Temperature 91 °F 88 °F 96 °F (1937)
Min Temperature 77 °F 70 °F 57 °F (2011)
Cooling Degree Days 19    
Growing Degree Days 34 (Base 50)    
Moisture  
Dew Point 77 °F    
Average Humidity 85    
Maximum Humidity 94    
Minimum Humidity 59    
Precipitation  
Precipitation 0.00 in - - ()
Sea Level Pressure  
Sea Level Pressure 29.88 in    
Wind  
Wind Speed 5 mph (SW)    
Max Wind Speed 10 mph    
Max Gust Speed 22 mph    
Visibility 10 miles    
Events Thunderstorm    
Averages and records for this station are not official NWS values.
T = Trace of Precipitation, MM = Missing Value Source: NWS Daily Summary

Daily Weather History Graph

Daily Weather History Graph

Search for Another Location

Airport or City:

Trip Planner

Search our weather history database for the weather conditions in past years. The results will help you decide how hot, cold, wet, or windy it might be!

Date:

Astronomy

Sep. 08, 2012 Rise Set
Actual Time 7:06 AM EDT 7:39 PM EDT
Civil Twilight 6:41 AM EDT 8:04 PM EDT
Nautical Twilight 6:13 AM EDT 8:33 PM EDT
Astronomical Twilight 5:43 AM EDT 9:02 PM EDT
Moon 12:03 AM EDT (9/8) 2:18 PM EDT (9/8)
Length of Visible Light 13h 22m
Length of Day
12h 33m
Waning Gibbous, 49% of the Moon is Illuminated
Sep 8
Waning Gibbous
Sep 15
New
Sep 22
First Quarter
Sep 29
Full
Oct 8
Last Quarter

Hourly Weather History & Observations

Time (EDT) Temp. Heat Index Dew Point Humidity Pressure Visibility Wind Dir Wind Speed Gust Speed Precip Events Conditions
12:15 AM 82.4 °F 90.9 °F 77.0 °F 84% 29.91 in 10.0 mi SW 5.8 mph - N/A   Clear
12:35 AM 82.4 °F 90.9 °F 77.0 °F 84% 29.90 in 10.0 mi SW 4.6 mph - N/A   Clear
12:55 AM 82.4 °F 90.9 °F 77.0 °F 84% 29.89 in 10.0 mi SSW 3.5 mph - N/A   Scattered Clouds
1:15 AM 80.6 °F 87.1 °F 77.0 °F 89% 29.89 in 10.0 mi Calm Calm - N/A   Clear
1:35 AM 80.6 °F 87.1 °F 77.0 °F 89% 29.89 in 10.0 mi SW 5.8 mph - N/A   Clear
1:55 AM 80.6 °F 87.1 °F 77.0 °F 89% 29.88 in 10.0 mi SSW 4.6 mph - N/A   Clear
2:15 AM 80.6 °F 87.1 °F 77.0 °F 89% 29.88 in 10.0 mi SSW 5.8 mph - N/A   Clear
2:35 AM 80.6 °F 86.2 °F 75.2 °F 84% 29.89 in 10.0 mi SW 6.9 mph - N/A   Clear
2:55 AM 80.6 °F 86.2 °F 75.2 °F 84% 29.89 in 10.0 mi WSW 4.6 mph - N/A   Clear
3:15 AM 78.8 °F - 75.2 °F 89% 29.89 in 10.0 mi WSW 4.6 mph - N/A   Clear
3:35 AM 78.8 °F - 75.2 °F 89% 29.90 in 10.0 mi WSW 4.6 mph - N/A   Clear
3:55 AM 78.8 °F - 77.0 °F 94% 29.89 in 10.0 mi WSW 3.5 mph - N/A   Clear
4:15 AM 78.8 °F - 77.0 °F 94% 29.90 in 10.0 mi SW 3.5 mph - N/A   Clear
4:35 AM 78.8 °F - 75.2 °F 89% 29.89 in 10.0 mi Calm Calm - N/A   Clear
4:55 AM 78.8 °F - 75.2 °F 89% 29.90 in 10.0 mi Calm Calm - N/A   Clear
5:15 AM 78.8 °F - 75.2 °F 89% 29.90 in 10.0 mi SSW 3.5 mph - N/A   Clear
5:35 AM 78.8 °F - 75.2 °F 89% 29.90 in 10.0 mi SSW 3.5 mph - N/A   Clear
5:55 AM 78.8 °F - 75.2 °F 89% 29.90 in 10.0 mi Calm Calm - N/A   Clear
6:15 AM 77.0 °F - 73.4 °F 89% 29.90 in 7.0 mi Calm Calm - N/A   Clear
6:35 AM 78.8 °F - 77.0 °F 94% 29.90 in 10.0 mi SW 4.6 mph - N/A   Clear
6:55 AM 78.8 °F - 77.0 °F 94% 29.90 in 10.0 mi SW 3.5 mph - N/A   Clear
7:15 AM 78.8 °F - 77.0 °F 94% 29.91 in 10.0 mi SW 3.5 mph - N/A   Clear
7:35 AM 78.8 °F - 77.0 °F 94% 29.91 in 10.0 mi SW 4.6 mph - N/A   Clear
7:55 AM 78.8 °F - 77.0 °F 94% 29.91 in 10.0 mi SW 3.5 mph - N/A   Clear
8:15 AM 80.6 °F 87.1 °F 77.0 °F 89% 29.91 in 10.0 mi SW 3.5 mph - N/A   Clear
8:35 AM 82.4 °F 90.9 °F 77.0 °F 84% 29.92 in 10.0 mi SW 4.6 mph - N/A   Clear
8:55 AM 82.4 °F 90.9 °F 77.0 °F 84% 29.92 in 10.0 mi SW 6.9 mph - N/A   Clear
9:15 AM 84.2 °F 94.1 °F 77.0 °F 79% 29.92 in 10.0 mi WSW 8.1 mph - N/A   Clear
9:35 AM 86.0 °F 96.9 °F 77.0 °F 74% 29.92 in 10.0 mi SSW 6.9 mph - N/A   Scattered Clouds
9:55 AM 86.0 °F 96.9 °F 77.0 °F 74% 29.92 in 10.0 mi SW 8.1 mph - N/A   Mostly Cloudy
10:15 AM 87.8 °F 102.5 °F 78.8 °F 75% 29.92 in 10.0 mi WSW 9.2 mph - N/A   Overcast
10:35 AM 86.0 °F 99.3 °F 78.8 °F 79% 29.92 in 10.0 mi WSW 6.9 mph - N/A   Overcast
10:55 AM 87.8 °F 102.5 °F 78.8 °F 75% 29.92 in 10.0 mi SW 8.1 mph - N/A   Overcast
11:15 AM 87.8 °F 99.7 °F 77.0 °F 70% 29.92 in 10.0 mi SW 4.6 mph - N/A   Mostly Cloudy
11:35 AM 89.6 °F 102.2 °F 77.0 °F 66% 29.91 in 10.0 mi SSW 9.2 mph - N/A   Mostly Cloudy
11:55 AM 89.6 °F 102.2 °F 77.0 °F 66% 29.90 in 10.0 mi WSW 9.2 mph - N/A   Mostly Cloudy
12:15 PM 91.4 °F 105.1 °F 77.0 °F 63% 29.89 in 10.0 mi SW 10.4 mph - N/A   Scattered Clouds
12:35 PM 91.4 °F 102.5 °F 75.2 °F 59% 29.88 in 10.0 mi South 10.4 mph - N/A   Scattered Clouds
12:55 PM 91.4 °F 102.5 °F 75.2 °F 59% 29.87 in 10.0 mi SSW 6.9 mph - N/A Thunderstorm Scattered Clouds
1:15 PM 91.4 °F 105.1 °F 77.0 °F 63% 29.87 in 10.0 mi SSW 8.1 mph - N/A   Mostly Cloudy
1:35 PM 86.0 °F 96.9 °F 77.0 °F 74% 29.87 in 7.0 mi WSW 9.2 mph 20.7 mph N/A   Mostly Cloudy
1:55 PM 86.0 °F 101.9 °F 80.6 °F 84% 29.85 in 10.0 mi NW 5.8 mph - N/A   Scattered Clouds
2:15 PM 89.6 °F 104.7 °F 78.8 °F 70% 29.84 in 10.0 mi Calm Calm - N/A Thunderstorm Clear
2:35 PM 91.4 °F 105.1 °F 77.0 °F 63% 29.84 in 10.0 mi SW 4.6 mph - N/A Thunderstorm Thunderstorm
2:55 PM 89.6 °F 104.7 °F 78.8 °F 70% 29.83 in 10.0 mi SE 9.2 mph - N/A Thunderstorm Mostly Cloudy
3:15 PM 78.8 °F - 75.2 °F 89% 29.85 in 0.8 mi Calm Calm - N/A Thunderstorm Thunderstorm
3:35 PM 78.8 °F - 77.0 °F 94% 29.84 in 1.0 mi SE 3.5 mph - N/A Thunderstorm Thunderstorm
3:55 PM 80.6 °F 88.1 °F 78.8 °F 94% 29.84 in 10.0 mi ESE 3.5 mph - N/A Thunderstorm Thunderstorm
4:15 PM 82.4 °F 92.4 °F 78.8 °F 89% 29.83 in 10.0 mi SW 3.5 mph - N/A Thunderstorm Mostly Cloudy
4:35 PM 82.4 °F 92.4 °F 78.8 °F 89% 29.83 in 10.0 mi South 4.6 mph - N/A Thunderstorm Thunderstorm
4:55 PM 82.4 °F 92.4 °F 78.8 °F 89% 29.84 in 10.0 mi SE 6.9 mph - N/A Thunderstorm Mostly Cloudy
5:15 PM 82.4 °F 92.4 °F 78.8 °F 89% 29.84 in 10.0 mi Calm Calm - N/A Thunderstorm Mostly Cloudy
5:35 PM 82.4 °F 92.4 °F 78.8 °F 89% 29.84 in 10.0 mi SSE 4.6 mph - N/A Thunderstorm Thunderstorm
5:55 PM 82.4 °F 92.4 °F 78.8 °F 89% 29.84 in 10.0 mi South 4.6 mph - N/A Thunderstorm Overcast
6:15 PM 80.6 °F 87.1 °F 77.0 °F 89% 29.86 in 5.0 mi WSW 10.4 mph 21.9 mph N/A   Overcast
6:35 PM 80.6 °F 87.1 °F 77.0 °F 89% 29.86 in 10.0 mi SW 5.8 mph - N/A   Overcast
6:55 PM 80.6 °F 87.1 °F 77.0 °F 89% 29.85 in 10.0 mi West 5.8 mph - N/A   Overcast
7:15 PM 78.8 °F - 77.0 °F 94% 29.85 in 10.0 mi Calm Calm - N/A   Overcast
7:35 PM 80.6 °F 87.1 °F 77.0 °F 89% 29.84 in 10.0 mi SW 4.6 mph - N/A   Mostly Cloudy
7:55 PM 80.6 °F 87.1 °F 77.0 °F 89% 29.84 in 10.0 mi Calm Calm - N/A   Scattered Clouds
8:15 PM 80.6 °F 87.1 °F 77.0 °F 89% 29.84 in 10.0 mi SW 3.5 mph - N/A   Clear
8:35 PM 80.6 °F 87.1 °F 77.0 °F 89% 29.85 in 10.0 mi SW 5.8 mph - N/A   Clear
8:55 PM 80.6 °F 87.1 °F 77.0 °F 89% 29.85 in 10.0 mi Calm Calm - N/A   Scattered Clouds
9:15 PM 78.8 °F - 77.0 °F 94% 29.85 in 10.0 mi Calm Calm - N/A   Mostly Cloudy
9:35 PM 78.8 °F - 77.0 °F 94% 29.86 in 10.0 mi WSW 4.6 mph - N/A   Overcast
9:55 PM 78.8 °F - 77.0 °F 94% 29.86 in 10.0 mi SW 4.6 mph - N/A   Overcast
10:15 PM 80.6 °F 87.1 °F 77.0 °F 89% 29.87 in 10.0 mi SW 5.8 mph - N/A   Overcast
10:35 PM 78.8 °F - 77.0 °F 94% 29.86 in 10.0 mi SW 3.5 mph - N/A   Overcast
10:55 PM 78.8 °F - 77.0 °F 94% 29.86 in 10.0 mi Calm Calm - N/A   Overcast
11:15 PM 80.6 °F 87.1 °F 77.0 °F 89% 29.86 in 10.0 mi SW 3.5 mph - N/A   Overcast
11:35 PM 80.6 °F 87.1 °F 77.0 °F 89% 29.86 in 10.0 mi Calm Calm - N/A Thunderstorm Overcast
11:55 PM 78.8 °F - 77.0 °F 94% 29.86 in 10.0 mi Calm Calm - N/A   Overcast